Location: Coffee Ditch
(40.9640°N, 122.7500°W)
Time: 06:43:27
(UTC+00:00)

Cosmos 540 Rocket - Pass Details

Date: 08 September 2024
Orbit: 737 x 749 km, 74.1° (Epoch: 05 October)

Event Time Altitude Azimuth Distance (km) Brightness Sun altitude
Rises 12:12:08 0° 345° (NNW) 3,183 6.8 -17.7°
Reaches altitude 10° 12:14:33 10° 350° (N) 2,257 6.1 -17.3°
Maximum altitude 12:19:33 53° 67° (ENE) 914 4.3 -16.4°
Drops below altitude 10° 12:24:31 10° 144° (SE) 2,251 6.1 -15.5°
Sets 12:26:55 0° 149° (SSE) 3,172 6.8 -15.1°
